Location: Lake Hudson State Recreational Area
(41.8372°N, 84.2445°W)
Time: 14:41:09
(UTC-04:00)

OTV 5 (USA 277) - Visible Passes

Search period start: 18 October 2017 00:00
Search period end: 28 October 2017 00:00
Orbit: 404 x 417 km, 43.0° (Epoch: 07 September)

Date Brightness Start Highest point End Pass type
(mag) Time Alt. Az. Time Alt. Az. Time Alt. Az.
18 Oct ? 19:23:45 10° W 19:27:07 72° N 19:30:20 11° E visible
18 Oct ? 21:01:07 10° W 21:03:06 30° W 21:03:06 30° W visible
19 Oct ? 20:10:01 10° W 20:13:23 70° SSW 20:14:27 39° SE visible
20 Oct ? 19:18:57 10° WNW 19:22:20 88° S 19:25:43 10° ESE visible
20 Oct ? 20:56:32 10° W 20:58:39 24° SW 20:58:39 24° SW visible
21 Oct ? 20:05:18 10° W 20:08:27 37° SSW 20:10:11 21° SSE visible
22 Oct ? 19:14:09 10° W 19:17:27 52° SSW 19:20:44 10° SE visible
22 Oct ? 20:52:50 10° WSW 20:54:16 12° SW 20:54:37 12° SSW visible
23 Oct ? 20:00:58 10° WSW 20:03:22 18° SSW 20:05:45 10° SSE visible
24 Oct ? 19:09:34 10° W 19:12:26 26° SSW 19:15:19 10° SSE visible
26 Oct ? 19:05:54 10° WSW 19:07:17 12° SW 19:08:40 10° SSW visible
